TimeMST,TemperatureF,Dew PointF,Humidity,Sea Level PressureIn,VisibilityMPH,Wind Direction,Wind SpeedMPH,Gust SpeedMPH,PrecipitationIn,Events,Conditions,WindDirDegrees,DateUTC
12:56 AM,33.1,27.0,78,29.94,10.0,Variable,3.5,-,N/A,,Overcast,0,2012-11-29 07:56:00
1:56 AM,37.9,30.9,76,29.94,10.0,NE,8.1,-,0.00,Rain,Light Rain,40,2012-11-29 08:56:00
2:56 AM,37.0,32.0,82,29.94,10.0,ENE,11.5,-,0.00,,Overcast,60,2012-11-29 09:56:00
3:56 AM,37.0,33.1,86,29.93,10.0,Calm,Calm,-,N/A,,Overcast,0,2012-11-29 10:56:00
4:56 AM,37.4,33.8,87,29.90,10.0,WSW,10.4,16.1,N/A,,Overcast,240,2012-11-29 11:56:00
5:56 AM,34.0,32.0,92,29.99,10.0,SE,5.8,-,N/A,,Overcast,140,2012-11-29 12:56:00
6:56 AM,35.1,30.9,85,30.01,10.0,SSW,4.6,-,N/A,,Overcast,200,2012-11-29 13:56:00
7:56 AM,34.0,30.9,89,30.01,10.0,Calm,Calm,-,N/A,,Overcast,0,2012-11-29 14:56:00
8:56 AM,36.0,32.0,86,30.02,10.0,SSE,3.5,-,N/A,,Overcast,160,2012-11-29 15:56:00
9:56 AM,43.0,34.0,71,30.00,10.0,NE,3.5,-,N/A,,Clear,40,2012-11-29 16:56:00
10:56 AM,46.9,35.1,63,29.99,10.0,North,4.6,-,N/A,,Clear,360,2012-11-29 17:56:00
11:56 AM,48.9,32.0,52,29.96,10.0,Calm,Calm,-,N/A,,Clear,0,2012-11-29 18:56:00
12:56 PM,46.9,32.0,56,29.93,10.0,ESE,3.5,-,N/A,,Clear,110,2012-11-29 19:56:00
1:56 PM,46.9,33.1,59,29.91,10.0,North,6.9,-,N/A,,Clear,10,2012-11-29 20:56:00
2:56 PM,48.9,28.0,44,29.90,10.0,Variable,4.6,-,N/A,,Clear,0,2012-11-29 21:56:00
3:56 PM,46.0,26.1,46,29.91,10.0,SSW,4.6,-,N/A,,Clear,210,2012-11-29 22:56:00
4:56 PM,42.1,26.1,53,29.94,10.0,South,4.6,-,N/A,,Clear,180,2012-11-29 23:56:00
5:56 PM,37.0,25.0,62,29.98,10.0,SSE,6.9,-,N/A,,Clear,150,2012-11-30 00:56:00
6:56 PM,42.1,27.0,55,29.94,10.0,South,8.1,-,N/A,,Mostly Cloudy,190,2012-11-30 01:56:00
7:56 PM,39.9,27.0,60,29.96,10.0,ESE,5.8,-,N/A,,Overcast,110,2012-11-30 02:56:00
8:56 PM,37.0,27.0,67,29.94,10.0,SE,5.8,-,N/A,,Clear,140,2012-11-30 03:56:00
9:56 PM,39.0,27.0,62,29.88,10.0,SE,8.1,-,N/A,,Clear,130,2012-11-30 04:56:00
10:56 PM,37.0,26.1,65,29.87,10.0,Calm,Calm,-,N/A,,Clear,0,2012-11-30 05:56:00
11:56 PM,34.0,27.0,75,29.87,10.0,NW,3.5,-,N/A,,Scattered Clouds,320,2012-11-30 06:56:00